Laramie, WY

10:35 AM MST on December 11, 2017 (GMT -0700)
Laramie Regional

Weather History for KLAR - October, 2014

Change the Weather History Date:

Friday, October 17, 2014

  Actual Average Record
Temperature  
Mean Temperature 45 °F 42 °F  
Max Temperature 60 °F 55 °F 74 °F (1950)
Min Temperature 30 °F 28 °F 6 °F (1948)
Degree Days  
Heating Degree Days 20 23  
Month to date heating degree days 313 351  
Since 1 July heating degree days 764 876  
Cooling Degree Days 0 0  
Month to date cooling degree days 0 0  
Year to date cooling degree days 67 67  
Moisture  
Dew Point 28 °F    
Average Humidity 49    
Maximum Humidity 70    
Minimum Humidity 28    
Precipitation  
Precipitation 0.00 in 0.02 in 0.52 in (1969)
Month to date precipitation 0.24 0.47  
Year to date precipitation 13.10 9.73  
Sea Level Pressure  
Sea Level Pressure 30.02 in    
Wind  
Wind Speed 9 mph (SE)    
Max Wind Speed 16 mph    
Max Gust Speed 20 mph    
Visibility 10 miles    
Events      
T = Trace of Precipitation, MM = Missing Value Source: NWS Daily Summary

Daily Weather History Graph

Daily Weather History Graph

Search for Another Location

Airport or City:

Trip Planner

Search our weather history database for the weather conditions in past years. The results will help you decide how hot, cold, wet, or windy it might be!

Date:

Astronomy

Oct. 17, 2014 Rise Set
Actual Time 7:16 AM MDT 6:18 PM MDT
Civil Twilight 6:48 AM MDT 6:46 PM MDT
Nautical Twilight 6:16 AM MDT 7:18 PM MDT
Astronomical Twilight 5:44 AM MDT 7:50 PM MDT
Moon 1:19 AM MDT (10/17) 3:10 PM MDT (10/17)
Length of Visible Light 11h 57m
Length of Day
11h 01m
Waning Crescent, 32% of the Moon is Illuminated
Oct 17
Waning Crescent
Oct 23
New
Oct 30
First Quarter
Nov 6
Full
Nov 14
Last Quarter

Hourly Weather History & Observations

Time (MDT) Temp. Windchill Dew Point Humidity Pressure Visibility Wind Dir Wind Speed Gust Speed Precip Events Conditions
12:53 AM 41.0 °F 35.2 °F 28.9 °F 62% 29.93 in 10.0 mi SSE 9.2 mph - N/A   Clear
1:53 AM 39.9 °F 33.4 °F 27.0 °F 60% 29.96 in 10.0 mi SSE 10.4 mph - N/A   Clear
2:53 AM 37.0 °F 29.8 °F 26.1 °F 65% 29.96 in 10.0 mi SSE 10.4 mph - N/A   Clear
3:53 AM 37.0 °F 30.4 °F 25.0 °F 62% 29.97 in 10.0 mi South 9.2 mph - N/A   Clear
4:53 AM 33.1 °F 24.9 °F 24.1 °F 70% 30.01 in 10.0 mi South 10.4 mph - N/A   Clear
5:53 AM 33.1 °F 24.9 °F 23.0 °F 66% 30.03 in 10.0 mi South 10.4 mph - N/A   Clear
6:53 AM 32.0 °F 23.6 °F 23.0 °F 69% 30.07 in 10.0 mi South 10.4 mph - N/A   Clear
7:53 AM 33.1 °F 26.1 °F 24.1 °F 70% 30.08 in 10.0 mi SSW 8.1 mph - N/A   Clear
8:53 AM 42.1 °F 38.4 °F 28.0 °F 58% 30.05 in 10.0 mi South 5.8 mph - N/A   Clear
9:53 AM 48.0 °F - 28.0 °F 46% 30.02 in 10.0 mi South 6.9 mph - N/A   Clear
10:53 AM 53.1 °F - 28.9 °F 40% 30.01 in 10.0 mi Calm Calm - N/A   Clear
11:53 AM 57.0 °F - 28.0 °F 33% 29.98 in 10.0 mi NE 5.8 mph - N/A   Clear
12:53 PM 59.0 °F - 28.9 °F 32% 29.98 in 10.0 mi North 8.1 mph - N/A   Clear
1:53 PM 57.9 °F - 28.0 °F 32% 29.98 in 10.0 mi NNE 11.5 mph - N/A   Clear
2:53 PM 59.0 °F - 28.9 °F 32% 29.99 in 10.0 mi NNE 10.4 mph - N/A   Clear
3:53 PM 59.0 °F - 28.0 °F 31% 30.00 in 10.0 mi NNE 6.9 mph - N/A   Clear
4:53 PM 59.0 °F - 27.0 °F 29% 30.02 in 10.0 mi NE 6.9 mph - N/A   Clear
5:53 PM 54.0 °F - 26.1 °F 34% 30.04 in 10.0 mi North 6.9 mph - N/A   Clear
6:53 PM 46.0 °F 41.0 °F 30.0 °F 54% 30.12 in 10.0 mi SE 10.4 mph - N/A   Clear
7:53 PM 42.1 °F 36.1 °F 30.0 °F 62% 30.14 in 10.0 mi SSE 10.4 mph - N/A   Clear
8:53 PM 42.1 °F 35.7 °F 30.0 °F 62% 30.10 in 10.0 mi SSE 11.5 mph - N/A   Clear
9:53 PM 42.1 °F 36.1 °F 30.9 °F 65% 30.07 in 10.0 mi SSE 10.4 mph - N/A   Clear
10:53 PM 41.0 °F 34.7 °F 30.9 °F 67% 30.05 in 10.0 mi South 10.4 mph - N/A   Clear
11:53 PM 39.9 °F 32.1 °F 30.0 °F 68% 30.02 in 10.0 mi South 13.8 mph - N/A   Clear